Change the Weather History Date:

Tuesday, November 26, 2013

  Actual Average (KHGR) Record (KHGR)
Temperature  
Mean Temperature 34 °F 41 °F  
Max Temperature 35 °F 48 °F 63 °F (2011)
Min Temperature 32 °F 33 °F 19 °F (2005)
Degree Days  
Heating Degree Days 32 24  
Month to date heating degree days 502  
Since 1 July heating degree days 904  
Cooling Degree Days 0 0  
Month to date cooling degree days 0  
Year to date cooling degree days 969  
Moisture  
Dew Point 27 °F    
Average Humidity 78    
Maximum Humidity 100    
Minimum Humidity 48    
Precipitation  
Precipitation 0.45 in 0.12 in 0.64 in (2014)
Month to date precipitation 2.71  
Year to date precipitation 35.89  
Sea Level Pressure  
Sea Level Pressure 30.11 in    
Wind  
Wind Speed 4 mph (NE)    
Max Wind Speed 16 mph    
Max Gust Speed 22 mph    
Visibility 6 miles    
Events Rain    
T = Trace of Precipitation, MM = Missing Value Source: NWS Daily Summary

Daily Weather History Graph

Daily Weather History Graph

Search for Another Location

Airport or City:

Trip Planner

Search our weather history database for the weather conditions in past years. The results will help you decide how hot, cold, wet, or windy it might be!

Date:

Astronomy

Nov. 26, 2013 Rise Set
Actual Time 7:05 AM EST 4:47 PM EST
Civil Twilight 6:36 AM EST 5:17 PM EST
Nautical Twilight 6:03 AM EST 5:50 PM EST
Astronomical Twilight 5:30 AM EST 6:22 PM EST
Moon 12:09 AM EST (11/26) 12:51 PM EST (11/26)
Length of Visible Light 10h 41m
Length of Day
9h 42m
Last Quarter, 41% of the Moon is Illuminated
Nov 26
Last Quarter
Dec 2
New
Dec 9
First Quarter
Dec 17
Full
Dec 25
Last Quarter

Hourly Weather History & Observations

Time (EST) Temp. Windchill Dew Point Humidity Pressure Visibility Wind Dir Wind Speed Gust Speed Precip Events Conditions
12:00 AM 32.0 °F 26.4 °F 14.0 °F 48% 30.35 in 10.0 mi South 5.8 mph - N/A   Scattered Clouds
12:20 AM 32.0 °F 26.4 °F 15.8 °F 51% 30.34 in 10.0 mi South 5.8 mph - N/A   Mostly Cloudy
12:40 AM 32.0 °F 27.5 °F 15.8 °F 51% 30.33 in 10.0 mi South 4.6 mph - N/A   Overcast
1:00 AM 33.8 °F 29.6 °F 15.8 °F 48% 30.33 in 10.0 mi SSE 4.6 mph - N/A   Overcast
1:20 AM 33.8 °F 30.8 °F 15.8 °F 48% 30.33 in 10.0 mi SSW 3.5 mph - N/A   Overcast
1:40 AM 33.8 °F 29.6 °F 17.6 °F 52% 30.33 in 10.0 mi SW 4.6 mph - N/A   Overcast
2:00 AM 33.8 °F - 17.6 °F 52% 30.32 in 10.0 mi Calm Calm - N/A   Overcast
2:20 AM 32.0 °F 27.5 °F 17.6 °F 55% 30.32 in 10.0 mi SSW 4.6 mph - N/A   Overcast
2:40 AM 32.0 °F - 19.4 °F 60% 30.30 in 10.0 mi Calm Calm - N/A   Overcast
3:00 AM 32.0 °F 27.5 °F 19.4 °F 60% 30.32 in 10.0 mi SSW 4.6 mph - N/A   Overcast
3:20 AM 33.8 °F 30.8 °F 19.4 °F 56% 30.30 in 10.0 mi SSE 3.5 mph - N/A   Overcast
3:35 AM 33.8 °F 30.8 °F 19.4 °F 56% 30.28 in 10.0 mi South 3.5 mph - N/A   Overcast
4:00 AM 33.8 °F 30.8 °F 19.4 °F 56% 30.29 in 10.0 mi South 3.5 mph - N/A   Overcast
4:20 AM 33.8 °F - 19.4 °F 56% 30.29 in 10.0 mi Calm Calm - N/A   Overcast
4:40 AM 33.8 °F - 19.4 °F 56% 30.29 in 10.0 mi Calm Calm - N/A   Overcast
5:00 AM 33.8 °F - 21.2 °F 60% 30.29 in 10.0 mi Calm Calm - N/A   Overcast
5:20 AM 33.8 °F - 21.2 °F 60% 30.30 in 10.0 mi Calm Calm - N/A   Overcast
5:40 AM 33.8 °F - 21.2 °F 60% 30.29 in 10.0 mi Calm Calm - N/A   Overcast
6:45 AM 33.8 °F - 21.2 °F 60% 30.29 in 10.0 mi Calm Calm - N/A   Overcast
7:50 AM 35.6 °F 32.8 °F 21.2 °F 56% 30.30 in 10.0 mi South 3.5 mph - N/A   Overcast
8:50 AM 33.8 °F - 28.4 °F 81% 30.30 in 5.0 mi Calm Calm - N/A Rain Light Rain
9:55 AM 33.8 °F - 30.2 °F 87% 30.29 in 5.0 mi Calm Calm - N/A   Overcast
10:52 AM 33.8 °F - 30.2 °F 87% 30.28 in 3.0 mi Calm Calm - N/A   Overcast
11:53 AM 33.8 °F - 32.0 °F 93% 30.23 in 3.0 mi Calm Calm - N/A   Overcast
12:49 PM 33.8 °F 30.8 °F 33.8 °F 100% 30.20 in 3.0 mi NNE 3.5 mph - N/A   Overcast
1:16 PM 33.8 °F - 33.8 °F 100% 30.19 in 3.0 mi Calm Calm - N/A   Overcast
1:55 PM 33.8 °F - 33.8 °F 100% 30.17 in 3.0 mi Calm Calm - N/A Rain Light Rain
2:55 PM 33.8 °F - 33.8 °F 100% 30.13 in 3.0 mi Calm Calm - N/A   Overcast
3:55 PM 33.8 °F - 33.8 °F 100% 30.10 in 3.0 mi Calm Calm - N/A Rain Light Rain
4:55 PM 33.8 °F 29.6 °F 33.8 °F 100% 30.08 in 3.0 mi Variable 4.6 mph - N/A Rain Rain
5:45 PM 33.8 °F 25.8 °F 33.8 °F 100% 30.04 in 3.0 mi NNE 10.4 mph - N/A Rain Rain
6:50 PM 33.8 °F 25.3 °F 33.8 °F 100% 29.97 in 4.0 mi NNE 11.5 mph - N/A Rain Light Rain
7:55 PM - - - N/A% 29.87 in 2.5 mi NNE 11.5 mph 18.4 mph N/A Rain Rain
8:00 PM 33.8 °F 24.3 °F 33.8 °F 100% 29.87 in 2.5 mi NNE 13.8 mph 18.4 mph N/A Rain Light Rain
8:20 PM 33.8 °F 23.5 °F 33.8 °F 100% 29.84 in 2.5 mi North 16.1 mph - 0.05 in Rain Light Rain
8:40 PM 33.8 °F 24.8 °F 33.8 °F 100% 29.81 in 2.5 mi NNE 12.7 mph 20.7 mph 0.11 in Rain Light Rain
9:00 PM 33.8 °F 25.8 °F 33.8 °F 100% 29.78 in 2.5 mi NE 10.4 mph 21.9 mph N/A Rain Rain
9:20 PM 33.8 °F 24.3 °F 33.8 °F 100% 29.76 in 2.5 mi North 13.8 mph 20.7 mph 0.05 in Rain Rain
9:40 PM 33.8 °F 25.8 °F 33.8 °F 100% 29.77 in 3.0 mi North 10.4 mph - 0.14 in Rain Heavy Rain
10:00 PM 33.8 °F 27.7 °F 33.8 °F 100% 29.74 in 2.5 mi North 6.9 mph - N/A Rain Rain
10:20 PM 33.8 °F 27.0 °F 33.8 °F 100% 29.74 in 2.5 mi NNW 8.1 mph - 0.05 in Rain Rain
10:40 PM 35.6 °F 31.7 °F 35.6 °F 100% 29.73 in 2.5 mi NNW 4.6 mph - 0.12 in Rain Heavy Rain
11:00 PM 35.6 °F - 35.6 °F 100% 29.69 in 1.5 mi Calm Calm - N/A   Overcast
11:20 PM 35.6 °F - 35.6 °F 100% 29.66 in 1.2 mi Calm Calm - 0.06 in   Overcast
11:40 PM 35.6 °F 30.7 °F 35.6 °F 100% 29.69 in 2.0 mi WSW 5.8 mph - 0.08 in Rain Rain